Time,TemperatureF,DewpointF,PressureIn,WindDirection,WindDirectionDegrees,WindSpeedMPH,WindSpeedGustMPH,Humidity,HourlyPrecipIn,Conditions,Clouds,dailyrainin,SolarRadiationWatts/m^2,SoftwareType,DateUTC
2013-04-19 00:01:00,40.0,13.0,-100.00,South,181,5.0,7.0,32,0.00,,,0.00,0.000000,,2013-04-19 06:01:00,
2013-04-19 00:32:00,42.0,13.0,-100.00,NNW,342,8.0,9.0,30,0.00,,,0.00,0.000000,,2013-04-19 06:32:00,
2013-04-19 01:32:00,38.0,15.0,-100.00,SE,130,7.0,22.0,39,-99.99,,,0.00,0.000000,,2013-04-19 07:32:00,
2013-04-19 01:42:00,38.0,15.0,-100.00,SE,130,7.0,22.0,39,-99.99,,,0.00,0.000000,,2013-04-19 07:42:00,
2013-04-19 01:52:00,38.0,15.0,-100.00,SE,130,7.0,22.0,39,-99.99,,,0.00,0.000000,,2013-04-19 07:52:00,
2013-04-19 02:02:00,38.0,15.0,-100.00,SE,130,7.0,22.0,39,-99.99,,,0.00,0.000000,,2013-04-19 08:02:00,
2013-04-19 02:33:00,37.0,13.0,-100.00,South,181,10.0,16.0,36,0.00,,,0.00,0.000000,,2013-04-19 08:33:00,
2013-04-19 02:42:00,37.0,13.0,-100.00,South,181,10.0,16.0,36,0.00,,,0.00,0.000000,,2013-04-19 08:42:00,
2013-04-19 02:52:00,37.0,13.0,-100.00,South,181,10.0,16.0,36,0.00,,,0.00,0.000000,,2013-04-19 08:52:00,
2013-04-19 03:01:00,37.0,13.0,-100.00,South,181,10.0,16.0,36,0.00,,,0.00,0.000000,,2013-04-19 09:01:00,
2013-04-19 03:33:00,36.0,15.0,-100.00,WSW,253,0.0,16.0,42,0.00,,,0.00,0.000000,,2013-04-19 09:33:00,
2013-04-19 03:43:00,36.0,15.0,-100.00,WSW,253,0.0,16.0,42,0.00,,,0.00,0.000000,,2013-04-19 09:43:00,
2013-04-19 03:52:00,36.0,15.0,-100.00,WSW,253,0.0,16.0,42,0.00,,,0.00,0.000000,,2013-04-19 09:52:00,
2013-04-19 04:02:00,36.0,15.0,-100.00,WSW,253,0.0,16.0,42,0.00,,,0.00,0.000000,,2013-04-19 10:02:00,
2013-04-19 04:33:00,34.0,14.0,-100.00,North,350,0.0,5.0,43,0.00,,,0.00,0.000000,,2013-04-19 10:33:00,
2013-04-19 04:42:00,34.0,14.0,-100.00,North,350,0.0,5.0,43,0.00,,,0.00,0.000000,,2013-04-19 10:42:00,
2013-04-19 04:52:00,34.0,14.0,-100.00,North,350,0.0,5.0,43,0.00,,,0.00,0.000000,,2013-04-19 10:52:00,
2013-04-19 05:02:00,34.0,14.0,-100.00,North,350,0.0,5.0,43,0.00,,,0.00,0.000000,,2013-04-19 11:02:00,
2013-04-19 05:32:00,34.0,14.0,-100.00,SE,144,3.0,5.0,44,0.00,,,0.00,0.000000,,2013-04-19 11:32:00,
2013-04-19 05:43:00,34.0,14.0,-100.00,SE,144,3.0,5.0,44,0.00,,,0.00,0.000000,,2013-04-19 11:43:00,
2013-04-19 05:52:00,34.0,14.0,-100.00,SE,144,3.0,5.0,44,0.00,,,0.00,0.000000,,2013-04-19 11:52:00,
2013-04-19 06:02:00,34.0,14.0,-100.00,SE,144,3.0,5.0,44,0.00,,,0.00,0.000000,,2013-04-19 12:02:00,
2013-04-19 06:22:00,34.0,13.0,-100.00,South,182,4.0,8.0,42,0.00,,,0.00,0.000000,,2013-04-19 12:22:00,
2013-04-19 06:32:00,34.0,13.0,-100.00,South,182,4.0,8.0,42,0.00,,,0.00,0.000000,,2013-04-19 12:32:00,
2013-04-19 06:42:00,34.0,13.0,-100.00,South,182,4.0,8.0,42,0.00,,,0.00,0.000000,,2013-04-19 12:42:00,
2013-04-19 06:52:00,34.0,13.0,-100.00,South,182,4.0,8.0,42,0.00,,,0.00,0.000000,,2013-04-19 12:52:00,
2013-04-19 07:01:00,34.0,13.0,-100.00,South,182,4.0,8.0,42,0.00,,,0.00,0.000000,,2013-04-19 13:01:00,
2013-04-19 07:32:00,34.0,13.0,-100.00,West,259,1.0,10.0,42,0.00,,,0.00,4.000000,,2013-04-19 13:32:00,
2013-04-19 07:42:00,34.0,13.0,-100.00,West,259,1.0,10.0,42,0.00,,,0.00,4.000000,,2013-04-19 13:42:00,
2013-04-19 07:52:00,34.0,13.0,-100.00,West,259,1.0,10.0,42,0.00,,,0.00,4.000000,,2013-04-19 13:52:00,
2013-04-19 08:01:00,34.0,13.0,-100.00,West,259,1.0,10.0,42,0.00,,,0.00,4.000000,,2013-04-19 14:01:00,
2013-04-19 08:22:00,36.0,22.0,-100.00,SW,233,11.0,11.0,57,0.00,,,0.00,77.000000,,2013-04-19 14:22:00,
2013-04-19 08:32:00,36.0,22.0,-100.00,SW,233,11.0,11.0,57,0.00,,,0.00,77.000000,,2013-04-19 14:32:00,
2013-04-19 08:43:00,36.0,22.0,-100.00,SW,233,11.0,11.0,57,0.00,,,0.00,77.000000,,2013-04-19 14:43:00,
2013-04-19 08:52:00,36.0,22.0,-100.00,SW,233,11.0,11.0,57,0.00,,,0.00,77.000000,,2013-04-19 14:52:00,
2013-04-19 09:01:00,36.0,22.0,-100.00,SW,233,11.0,11.0,57,0.00,,,0.00,77.000000,,2013-04-19 15:01:00,
2013-04-19 09:03:00,37.0,25.0,-100.00,SW,215,8.0,18.0,61,0.00,,,0.00,136.000000,,2013-04-19 15:03:00,
2013-04-19 09:22:00,37.0,25.0,-100.00,SW,215,8.0,18.0,61,0.00,,,0.00,136.000000,,2013-04-19 15:22:00,
2013-04-19 09:33:00,37.0,25.0,-100.00,SW,215,8.0,18.0,61,0.00,,,0.00,136.000000,,2013-04-19 15:33:00,
2013-04-19 09:43:00,37.0,25.0,-100.00,SW,215,8.0,18.0,61,0.00,,,0.00,136.000000,,2013-04-19 15:43:00,
2013-04-19 09:52:00,37.0,25.0,-100.00,SW,215,8.0,18.0,61,0.00,,,0.00,136.000000,,2013-04-19 15:52:00,
2013-04-19 10:33:00,41.0,21.0,-100.00,South,172,8.0,14.0,44,0.00,,,0.00,192.000000,,2013-04-19 16:33:00,
2013-04-19 10:42:00,41.0,21.0,-100.00,South,172,8.0,14.0,44,0.00,,,0.00,192.000000,,2013-04-19 16:42:00,
2013-04-19 10:52:00,41.0,21.0,-100.00,South,172,8.0,14.0,44,0.00,,,0.00,192.000000,,2013-04-19 16:52:00,
2013-04-19 11:02:00,41.0,21.0,-100.00,South,172,8.0,14.0,44,0.00,,,0.00,192.000000,,2013-04-19 17:02:00,
2013-04-19 11:33:00,45.0,20.0,-100.00,NE,38,4.0,15.0,36,0.00,,,0.00,317.000000,,2013-04-19 17:33:00,
2013-04-19 11:43:00,45.0,20.0,-100.00,NE,38,4.0,15.0,36,0.00,,,0.00,317.000000,,2013-04-19 17:43:00,
2013-04-19 11:52:00,45.0,20.0,-100.00,NE,38,4.0,15.0,36,0.00,,,0.00,317.000000,,2013-04-19 17:52:00,
2013-04-19 12:33:00,46.0,20.0,-100.00,SW,218,12.0,13.0,35,0.00,,,0.00,252.000000,,2013-04-19 18:33:00,
2013-04-19 13:32:00,49.0,21.0,-100.00,SW,220,11.0,19.0,33,0.00,,,0.00,414.000000,,2013-04-19 19:32:00,
2013-04-19 13:42:00,49.0,21.0,-100.00,SW,220,11.0,19.0,33,0.00,,,0.00,414.000000,,2013-04-19 19:42:00,
2013-04-19 13:52:00,49.0,21.0,-100.00,SW,220,11.0,19.0,33,0.00,,,0.00,414.000000,,2013-04-19 19:52:00,
2013-04-19 14:01:00,49.0,21.0,-100.00,SW,220,11.0,19.0,33,0.00,,,0.00,414.000000,,2013-04-19 20:01:00,
2013-04-19 14:32:00,48.0,20.0,-100.00,ESE,114,4.0,20.0,32,0.00,,,0.00,283.000000,,2013-04-19 20:32:00,
2013-04-19 15:32:00,48.0,22.0,-100.00,NNE,12,8.0,16.0,35,0.00,,,0.00,213.000000,,2013-04-19 21:32:00,
2013-04-19 15:43:00,48.0,22.0,-100.00,NNE,12,8.0,16.0,35,0.00,,,0.00,213.000000,,2013-04-19 21:43:00,
2013-04-19 15:52:00,48.0,22.0,-100.00,NNE,12,8.0,16.0,35,0.00,,,0.00,213.000000,,2013-04-19 21:52:00,
2013-04-19 16:02:00,48.0,22.0,-100.00,NNE,12,8.0,16.0,35,0.00,,,0.00,213.000000,,2013-04-19 22:02:00,
2013-04-19 16:33:00,50.0,25.0,-100.00,NNE,17,6.0,15.0,38,0.00,,,0.00,252.000000,,2013-04-19 22:33:00,
2013-04-19 16:42:00,50.0,25.0,-100.00,NNE,17,6.0,15.0,38,0.00,,,0.00,252.000000,,2013-04-19 22:42:00,
2013-04-19 16:52:00,50.0,25.0,-100.00,NNE,17,6.0,15.0,38,0.00,,,0.00,252.000000,,2013-04-19 22:52:00,
2013-04-19 17:02:00,50.0,25.0,-100.00,NNE,17,6.0,15.0,38,0.00,,,0.00,252.000000,,2013-04-19 23:02:00,
2013-04-19 17:32:00,48.0,28.0,-100.00,SW,214,5.0,11.0,45,0.00,,,0.00,212.000000,,2013-04-19 23:32:00,
2013-04-19 17:42:00,48.0,28.0,-100.00,SW,214,5.0,11.0,45,0.00,,,0.00,212.000000,,2013-04-19 23:42:00,
2013-04-19 17:52:00,48.0,28.0,-100.00,SW,214,5.0,11.0,45,0.00,,,0.00,212.000000,,2013-04-19 23:52:00,
2013-04-19 18:01:00,48.0,28.0,-100.00,SW,214,5.0,11.0,45,0.00,,,0.00,212.000000,,2013-04-20 00:01:00,
2013-04-19 18:32:00,48.0,28.0,-100.00,SE,139,6.0,18.0,45,0.00,,,0.00,185.000000,,2013-04-20 00:32:00,
2013-04-19 18:42:00,48.0,28.0,-100.00,SE,139,6.0,18.0,45,0.00,,,0.00,185.000000,,2013-04-20 00:42:00,
2013-04-19 18:52:00,48.0,28.0,-100.00,SE,139,6.0,18.0,45,0.00,,,0.00,185.000000,,2013-04-20 00:52:00,
2013-04-19 19:01:00,48.0,28.0,-100.00,SE,139,6.0,18.0,45,0.00,,,0.00,185.000000,,2013-04-20 01:01:00,
2013-04-19 19:32:00,46.0,29.0,-100.00,WNW,285,8.0,11.0,51,0.00,,,0.00,112.000000,,2013-04-20 01:32:00,
2013-04-19 19:42:00,46.0,29.0,-100.00,WNW,285,8.0,11.0,51,0.00,,,0.00,112.000000,,2013-04-20 01:42:00,
2013-04-19 19:52:00,46.0,29.0,-100.00,WNW,285,8.0,11.0,51,0.00,,,0.00,112.000000,,2013-04-20 01:52:00,
2013-04-19 20:01:00,46.0,29.0,-100.00,WNW,285,8.0,11.0,51,0.00,,,0.00,112.000000,,2013-04-20 02:01:00,
2013-04-19 20:32:00,48.0,27.0,-100.00,South,187,3.0,16.0,43,0.00,,,0.00,53.000000,,2013-04-20 02:32:00,
2013-04-19 20:42:00,48.0,27.0,-100.00,South,187,3.0,16.0,43,0.00,,,0.00,53.000000,,2013-04-20 02:42:00,
2013-04-19 20:52:00,48.0,27.0,-100.00,South,187,3.0,16.0,43,0.00,,,0.00,53.000000,,2013-04-20 02:52:00,
2013-04-19 21:01:00,48.0,27.0,-100.00,South,187,3.0,16.0,43,0.00,,,0.00,53.000000,,2013-04-20 03:01:00,
2013-04-19 21:33:00,47.0,24.0,-100.00,ENE,73,3.0,12.0,40,0.00,,,0.00,4.000000,,2013-04-20 03:33:00,
2013-04-19 22:33:00,45.0,24.0,-100.00,SSE,161,5.0,12.0,44,0.00,,,0.00,0.000000,,2013-04-20 04:33:00,
2013-04-19 22:43:00,45.0,24.0,-100.00,SSE,161,5.0,12.0,44,0.00,,,0.00,0.000000,,2013-04-20 04:43:00,
2013-04-19 22:52:00,45.0,24.0,-100.00,SSE,161,5.0,12.0,44,0.00,,,0.00,0.000000,,2013-04-20 04:52:00,
2013-04-19 23:22:00,43.0,24.0,-100.00,NE,40,1.0,7.0,47,0.00,,,0.00,0.000000,,2013-04-20 05:22:00,
2013-04-19 23:32:00,43.0,24.0,-100.00,NE,40,1.0,7.0,47,0.00,,,0.00,0.000000,,2013-04-20 05:32:00,
2013-04-19 23:43:00,43.0,24.0,-100.00,NE,40,1.0,7.0,47,0.00,,,0.00,0.000000,,2013-04-20 05:43:00,
2013-04-19 23:52:00,43.0,24.0,-100.00,NE,40,1.0,7.0,47,0.00,,,0.00,0.000000,,2013-04-20 05:52:00,